owner,sensor,date,latitude,longitude,vertical_datum,wind_speed,wind_to_direction,wind_speed_of_gust,qcFlag 
ADCP,ioos:station:wmo:42370:1,2011-03-01T00:00:00Z,27.3220,-90.5360,78.7,6.6,157.0,99.0,'11111222,11111222,11144222' 
ADCP,ioos:station:wmo:42370:1,2011-03-01T00:20:00Z,27.3220,-90.5360,78.7,7.1,154.0,99.0,'11111222,11111222,11144222' 
ADCP,ioos:station:wmo:42370:1,2011-03-01T01:00:00Z,27.3220,-90.5360,78.7,7.9,147.0,99.0,'11111222,11111222,11144222' 
ADCP,ioos:station:wmo:42370:1,2011-03-01T01:20:00Z,27.3220,-90.5360,78.7,8.0,150.0,99.0,'11111222,11111222,11144222' 
ADCP,ioos:station:wmo:42370:1,2011-03-01T01:40:00Z,27.3220,-90.5360,78.7,7.9,151.0,99.0,'11111222,11111222,11144222' 
ADCP,ioos:station:wmo:42370:1,2011-03-01T02:00:00Z,27.3220,-90.5360,78.7,7.8,152.0,99.0,'11111222,11111222,11144222' 
ADCP,ioos:station:wmo:42370:1,2011-03-01T02:20:00Z,27.3220,-90.5360,78.7,6.9,156.0,99.0,'11111222,11111222,11144222' 
ADCP,ioos:station:wmo:42370:1,2011-03-01T02:40:00Z,27.3220,-90.5360,78.7,6.7,163.0,99.0,'11111222,11111222,11144222' 
ADCP,ioos:station:wmo:42370:1,2011-03-01T03:20:00Z,27.3220,-90.5360,78.7,6.3,167.0,99.0,'11111222,11111222,11144222' 
ADCP,ioos:station:wmo:42370:1,2011-03-01T03:40:00Z,27.3220,-90.5360,78.7,6.3,168.0,99.0,'11111222,11111222,11144222' 
ADCP,ioos:station:wmo:42370:1,2011-03-01T04:00:00Z,27.3220,-90.5360,78.7,6.0,168.0,99.0,'11111222,11111222,11144222' 
ADCP,ioos:station:wmo:42370:1,2011-03-01T04:20:00Z,27.3220,-90.5360,78.7,6.7,171.0,99.0,'11111222,11111222,11144222' 
ADCP,ioos:station:wmo:42370:1,2011-03-01T05:00:00Z,27.3220,-90.5360,78.7,5.5,190.0,99.0,'11111222,11111222,11144222' 
ADCP,ioos:station:wmo:42370:1,2011-03-01T05:20:00Z,27.3220,-90.5360,78.7,4.5,198.0,99.0,'11111222,11111222,11144222' 
ADCP,ioos:station:wmo:42370:1,2011-03-01T05:40:00Z,27.3220,-90.5360,78.7,4.3,210.0,99.0,'11111222,11111222,11144222' 
ADCP,ioos:station:wmo:42370:1,2011-03-01T06:00:00Z,27.3220,-90.5360,78.7,5.4,253.0,99.0,'11111222,11111222,11144222' 
ADCP,ioos:station:wmo:42370:1,2011-03-01T06:20:00Z,27.3220,-90.5360,78.7,7.2,312.0,99.0,'11111222,11111222,11144222' 
ADCP,ioos:station:wmo:42370:1,2011-03-01T06:40:00Z,27.3220,-90.5360,78.7,6.5,322.0,99.0,'11111222,11111222,11144222' 
ADCP,ioos:station:wmo:42370:1,2011-03-01T07:00:00Z,27.3220,-90.5360,78.7,7.2,322.0,99.0,'11111222,11111222,11144222' 
ADCP,ioos:station:wmo:42370:1,2011-03-01T07:20:00Z,27.3220,-90.5360,78.7,8.1,319.0,99.0,'11111222,11111222,11144222' 
ADCP,ioos:station:wmo:42370:1,2011-03-01T07:40:00Z,27.3220,-90.5360,78.7,8.9,322.0,99.0,'11111222,11111222,11144222' 
ADCP,ioos:station:wmo:42370:1,2011-03-01T08:00:00Z,27.3220,-90.5360,78.7,9.1,331.0,99.0,'11111222,11111222,11144222' 
ADCP,ioos:station:wmo:42370:1,2011-03-01T08:20:00Z,27.3220,-90.5360,78.7,10.4,337.0,99.0,'11111222,11111222,11144222' 
ADCP,ioos:station:wmo:42370:1,2011-03-01T08:40:00Z,27.3220,-90.5360,78.7,11.5,347.0,99.0,'11111222,11111222,11144222' 
ADCP,ioos:station:wmo:42370:1,2011-03-01T09:00:00Z,27.3220,-90.5360,78.7,12.0,319.0,99.0,'11111222,11111222,11144222' 
ADCP,ioos:station:wmo:42370:1,2011-03-01T09:20:00Z,27.3220,-90.5360,78.7,12.6,260.0,99.0,'11111222,11111222,11144222' 
ADCP,ioos:station:wmo:42370:1,2011-03-01T09:40:00Z,27.3220,-90.5360,78.7,12.5,111.0,99.0,'11111222,11111222,11144222' 
ADCP,ioos:station:wmo:42370:1,2011-03-01T10:00:00Z,27.3220,-90.5360,78.7,13.0,20.0,99.0,'11111222,11111222,11144222' 
ADCP,ioos:station:wmo:42370:1,2011-03-01T10:20:00Z,27.3220,-90.5360,78.7,12.8,54.0,99.0,'11111222,11111222,11144222' 
ADCP,ioos:station:wmo:42370:1,2011-03-01T10:40:00Z,27.3220,-90.5360,78.7,12.1,38.0,99.0,'11111222,11111222,11144222' 
ADCP,ioos:station:wmo:42370:1,2011-03-01T11:00:00Z,27.3220,-90.5360,78.7,12.2,70.0,99.0,'11111222,11111222,11144222' 
ADCP,ioos:station:wmo:42370:1,2011-03-01T11:20:00Z,27.3220,-90.5360,78.7,12.7,45.0,99.0,'11111222,11111222,11144222' 
ADCP,ioos:station:wmo:42370:1,2011-03-01T11:40:00Z,27.3220,-90.5360,78.7,13.1,47.0,99.0,'11111222,11111222,11144222' 
ADCP,ioos:station:wmo:42370:1,2011-03-01T12:00:00Z,27.3220,-90.5360,78.7,12.3,97.0,99.0,'11111222,11111222,11144222' 
ADCP,ioos:station:wmo:42370:1,2011-03-01T12:40:00Z,27.3220,-90.5360,78.7,12.8,148.0,99.0,'11111222,11111222,11144222' 
ADCP,ioos:station:wmo:42370:1,2011-03-01T13:00:00Z,27.3220,-90.5360,78.7,12.4,51.0,99.0,'11111222,11111222,11144222' 
ADCP,ioos:station:wmo:42370:1,2011-03-01T13:20:00Z,27.3220,-90.5360,78.7,11.3,70.0,99.0,'11111222,11111222,11144222' 
ADCP,ioos:station:wmo:42370:1,2011-03-01T13:40:00Z,27.3220,-90.5360,78.7,11.5,97.0,99.0,'11111222,11111222,11144222' 
ADCP,ioos:station:wmo:42370:1,2011-03-01T14:00:00Z,27.3220,-90.5360,78.7,11.8,178.0,99.0,'11111222,11111222,11144222' 
ADCP,ioos:station:wmo:42370:1,2011-03-01T14:20:00Z,27.3220,-90.5360,78.7,11.3,135.0,99.0,'11111222,11111222,11144222' 
ADCP,ioos:station:wmo:42370:1,2011-03-01T14:40:00Z,27.3220,-90.5360,78.7,11.3,107.0,99.0,'11111222,11111222,11144222' 
ADCP,ioos:station:wmo:42370:1,2011-03-01T15:00:00Z,27.3220,-90.5360,78.7,11.1,85.0,99.0,'11111222,11111222,11144222' 
ADCP,ioos:station:wmo:42370:1,2011-03-01T15:20:00Z,27.3220,-90.5360,78.7,11.1,67.0,99.0,'11111222,11111222,11144222' 
ADCP,ioos:station:wmo:42370:1,2011-03-01T15:40:00Z,27.3220,-90.5360,78.7,10.0,91.0,99.0,'11111222,11111222,11144222' 
ADCP,ioos:station:wmo:42370:1,2011-03-01T16:20:00Z,27.3220,-90.5360,78.7,10.2,69.0,99.0,'11111222,11111222,11144222' 
ADCP,ioos:station:wmo:42370:1,2011-03-01T16:40:00Z,27.3220,-90.5360,78.7,10.8,128.0,99.0,'11111222,11111222,11144222' 
ADCP,ioos:station:wmo:42370:1,2011-03-01T17:00:00Z,27.3220,-90.5360,78.7,10.8,177.0,99.0,'11111222,11111222,11144222' 
ADCP,ioos:station:wmo:42370:1,2011-03-01T17:20:00Z,27.3220,-90.5360,78.7,11.4,250.0,99.0,'11111222,11111222,11144222' 
ADCP,ioos:station:wmo:42370:1,2011-03-01T17:40:00Z,27.3220,-90.5360,78.7,11.1,292.0,99.0,'11111222,11111222,11144222' 
ADCP,ioos:station:wmo:42370:1,2011-03-01T18:00:00Z,27.3220,-90.5360,78.7,11.0,331.0,99.0,'11111222,11111222,11144222' 
ADCP,ioos:station:wmo:42370:1,2011-03-01T18:20:00Z,27.3220,-90.5360,78.7,10.7,335.0,99.0,'11111222,11111222,11144222' 
ADCP,ioos:station:wmo:42370:1,2011-03-01T18:40:00Z,27.3220,-90.5360,78.7,11.2,344.0,99.0,'11111222,11111222,11144222' 
ADCP,ioos:station:wmo:42370:1,2011-03-01T19:00:00Z,27.3220,-90.5360,78.7,11.4,340.0,99.0,'11111222,11111222,11144222' 
ADCP,ioos:station:wmo:42370:1,2011-03-01T19:20:00Z,27.3220,-90.5360,78.7,11.5,333.0,99.0,'11111222,11111222,11144222' 
ADCP,ioos:station:wmo:42370:1,2011-03-01T19:40:00Z,27.3220,-90.5360,78.7,11.0,332.0,99.0,'11111222,11111222,11144222' 
ADCP,ioos:station:wmo:42370:1,2011-03-01T20:00:00Z,27.3220,-90.5360,78.7,10.9,344.0,99.0,'11111222,11111222,11144222' 
ADCP,ioos:station:wmo:42370:1,2011-03-01T20:20:00Z,27.3220,-90.5360,78.7,10.3,296.0,99.0,'11111222,11111222,11144222' 
ADCP,ioos:station:wmo:42370:1,2011-03-01T20:40:00Z,27.3220,-90.5360,78.7,10.7,293.0,99.0,'11111222,11111222,11144222' 
ADCP,ioos:station:wmo:42370:1,2011-03-01T21:00:00Z,27.3220,-90.5360,78.7,10.7,324.0,99.0,'11111222,11111222,11144222' 
ADCP,ioos:station:wmo:42370:1,2011-03-01T21:20:00Z,27.3220,-90.5360,78.7,10.4,332.0,99.0,'11111222,11111222,11144222' 
ADCP,ioos:station:wmo:42370:1,2011-03-01T21:40:00Z,27.3220,-90.5360,78.7,10.1,282.0,99.0,'11111222,11111222,11144222' 
ADCP,ioos:station:wmo:42370:1,2011-03-01T22:00:00Z,27.3220,-90.5360,78.7,9.5,222.0,99.0,'11111222,11111222,11144222' 
ADCP,ioos:station:wmo:42370:1,2011-03-01T22:20:00Z,27.3220,-90.5360,78.7,9.2,230.0,99.0,'11111222,11111222,11144222' 
ADCP,ioos:station:wmo:42370:1,2011-03-01T22:40:00Z,27.3220,-90.5360,78.7,8.7,211.0,99.0,'11111222,11111222,11144222' 
ADCP,ioos:station:wmo:42370:1,2011-03-01T23:00:00Z,27.3220,-90.5360,78.7,8.3,157.0,99.0,'11111222,11111222,11144222' 
ADCP,ioos:station:wmo:42370:1,2011-03-01T23:20:00Z,27.3220,-90.5360,78.7,7.6,96.0,99.0,'11111222,11111222,11144222' 
ADCP,ioos:station:wmo:42370:1,2011-03-02T00:00:00Z,27.3220,-90.5360,78.7,7.2,55.0,99.0,'11111222,11111222,11144222' 
ADCP,ioos:station:wmo:42370:1,2011-03-02T00:20:00Z,27.3220,-90.5360,78.7,7.9,54.0,99.0,'11111222,11111222,11144222' 
ADCP,ioos:station:wmo:42370:1,2011-03-02T00:40:00Z,27.3220,-90.5360,78.7,8.5,120.0,99.0,'11111222,11111222,11144222' 
ADCP,ioos:station:wmo:42370:1,2011-03-02T01:00:00Z,27.3220,-90.5360,78.7,8.2,149.0,99.0,'11111222,11111222,11144222' 
ADCP,ioos:station:wmo:42370:1,2011-03-02T01:20:00Z,27.3220,-90.5360,78.7,7.8,141.0,99.0,'11111222,11111222,11144222' 
ADCP,ioos:station:wmo:42370:1,2011-03-02T01:40:00Z,27.3220,-90.5360,78.7,7.0,48.0,99.0,'11111222,11111222,11144222' 
ADCP,ioos:station:wmo:42370:1,2011-03-02T02:00:00Z,27.3220,-90.5360,78.7,6.8,28.0,99.0,'11111222,11111222,11144222' 
ADCP,ioos:station:wmo:42370:1,2011-03-02T02:20:00Z,27.3220,-90.5360,78.7,6.5,40.0,99.0,'11111222,11111222,11144222' 
ADCP,ioos:station:wmo:42370:1,2011-03-02T02:40:00Z,27.3220,-90.5360,78.7,6.7,40.0,99.0,'11111222,11111222,11144222' 
ADCP,ioos:station:wmo:42370:1,2011-03-02T03:00:00Z,27.3220,-90.5360,78.7,6.7,28.0,99.0,'11111222,11111222,11144222' 
ADCP,ioos:station:wmo:42370:1,2011-03-02T03:20:00Z,27.3220,-90.5360,78.7,6.5,34.0,99.0,'11111222,11111222,11144222' 
ADCP,ioos:station:wmo:42370:1,2011-03-02T03:40:00Z,27.3220,-90.5360,78.7,6.3,37.0,99.0,'11111222,11111222,11144222' 
ADCP,ioos:station:wmo:42370:1,2011-03-02T04:00:00Z,27.3220,-90.5360,78.7,7.0,26.0,99.0,'11111222,11111222,11144222' 
ADCP,ioos:station:wmo:42370:1,2011-03-02T04:20:00Z,27.3220,-90.5360,78.7,6.5,28.0,99.0,'11111222,11111222,11144222' 
ADCP,ioos:station:wmo:42370:1,2011-03-02T05:00:00Z,27.3220,-90.5360,78.7,5.8,33.0,99.0,'11111222,11111222,11144222' 
ADCP,ioos:station:wmo:42370:1,2011-03-02T05:20:00Z,27.3220,-90.5360,78.7,6.6,25.0,99.0,'11111222,11111222,11144222' 
ADCP,ioos:station:wmo:42370:1,2011-03-02T05:40:00Z,27.3220,-90.5360,78.7,6.6,33.0,99.0,'11111222,11111222,11144222' 
ADCP,ioos:station:wmo:42370:1,2011-03-02T06:00:00Z,27.3220,-90.5360,78.7,6.8,28.0,99.0,'11111222,11111222,11144222' 
ADCP,ioos:station:wmo:42370:1,2011-03-02T06:20:00Z,27.3220,-90.5360,78.7,6.8,28.0,99.0,'11111222,11111222,11144222' 
ADCP,ioos:station:wmo:42370:1,2011-03-02T06:40:00Z,27.3220,-90.5360,78.7,5.9,34.0,99.0,'11111222,11111222,11144222' 
ADCP,ioos:station:wmo:42370:1,2011-03-02T07:00:00Z,27.3220,-90.5360,78.7,6.3,28.0,99.0,'11111222,11111222,11144222' 
ADCP,ioos:station:wmo:42370:1,2011-03-02T07:20:00Z,27.3220,-90.5360,78.7,7.0,27.0,99.0,'11111222,11111222,11144222' 
ADCP,ioos:station:wmo:42370:1,2011-03-02T07:40:00Z,27.3220,-90.5360,78.7,6.3,33.0,99.0,'11111222,11111222,11144222' 
ADCP,ioos:station:wmo:42370:1,2011-03-02T08:00:00Z,27.3220,-90.5360,78.7,6.3,31.0,99.0,'11111222,11111222,11144222' 
ADCP,ioos:station:wmo:42370:1,2011-03-02T08:20:00Z,27.3220,-90.5360,78.7,6.4,31.0,99.0,'11111222,11111222,11144222' 
ADCP,ioos:station:wmo:42370:1,2011-03-02T08:40:00Z,27.3220,-90.5360,78.7,6.1,26.0,99.0,'11111222,11111222,11144222' 
ADCP,ioos:station:wmo:42370:1,2011-03-02T09:00:00Z,27.3220,-90.5360,78.7,6.2,29.0,99.0,'11111222,11111222,11144222' 
ADCP,ioos:station:wmo:42370:1,2011-03-02T09:20:00Z,27.3220,-90.5360,78.7,6.1,33.0,99.0,'11111222,11111222,11144222' 
ADCP,ioos:station:wmo:42370:1,2011-03-02T09:40:00Z,27.3220,-90.5360,78.7,6.1,41.0,99.0,'11111222,11111222,11144222' 
ADCP,ioos:station:wmo:42370:1,2011-03-02T10:00:00Z,27.3220,-90.5360,78.7,6.3,42.0,99.0,'11111222,11111222,11144222' 
ADCP,ioos:station:wmo:42370:1,2011-03-02T10:20:00Z,27.3220,-90.5360,78.7,7.3,23.0,99.0,'11111222,11111222,11144222' 
ADCP,ioos:station:wmo:42370:1,2011-03-02T10:40:00Z,27.3220,-90.5360,78.7,7.2,26.0,99.0,'11111222,11111222,11144222' 
ADCP,ioos:station:wmo:42370:1,2011-03-02T11:00:00Z,27.3220,-90.5360,78.7,7.3,24.0,99.0,'11111222,11111222,11144222' 
ADCP,ioos:station:wmo:42370:1,2011-03-02T11:20:00Z,27.3220,-90.5360,78.7,7.5,26.0,99.0,'11111222,11111222,11144222' 
ADCP,ioos:station:wmo:42370:1,2011-03-02T11:40:00Z,27.3220,-90.5360,78.7,7.8,25.0,99.0,'11111222,11111222,11144222' 
ADCP,ioos:station:wmo:42370:1,2011-03-02T12:00:00Z,27.3220,-90.5360,78.7,7.9,26.0,99.0,'11111222,11111222,11144222' 
ADCP,ioos:station:wmo:42370:1,2011-03-02T12:20:00Z,27.3220,-90.5360,78.7,7.3,23.0,99.0,'11111222,11111222,11144222' 
ADCP,ioos:station:wmo:42370:1,2011-03-02T12:40:00Z,27.3220,-90.5360,78.7,7.5,26.0,99.0,'11111222,11111222,11144222' 
ADCP,ioos:station:wmo:42370:1,2011-03-02T13:00:00Z,27.3220,-90.5360,78.7,7.8,27.0,99.0,'11111222,11111222,11144222' 
ADCP,ioos:station:wmo:42370:1,2011-03-02T13:20:00Z,27.3220,-90.5360,78.7,8.3,30.0,99.0,'11111222,11111222,11144222' 
ADCP,ioos:station:wmo:42370:1,2011-03-02T13:40:00Z,27.3220,-90.5360,78.7,7.7,30.0,99.0,'11111222,11111222,11144222' 
ADCP,ioos:station:wmo:42370:1,2011-03-02T14:00:00Z,27.3220,-90.5360,78.7,7.5,29.0,99.0,'11111222,11111222,11144222' 
ADCP,ioos:station:wmo:42370:1,2011-03-02T14:20:00Z,27.3220,-90.5360,78.7,8.0,33.0,99.0,'11111222,11111222,11144222' 
ADCP,ioos:station:wmo:42370:1,2011-03-02T14:40:00Z,27.3220,-90.5360,78.7,8.2,33.0,99.0,'11111222,11111222,11144222' 
ADCP,ioos:station:wmo:42370:1,2011-03-02T15:00:00Z,27.3220,-90.5360,78.7,8.2,28.0,99.0,'11111222,11111222,11144222' 
ADCP,ioos:station:wmo:42370:1,2011-03-02T15:20:00Z,27.3220,-90.5360,78.7,7.9,30.0,99.0,'11111222,11111222,11144222' 
ADCP,ioos:station:wmo:42370:1,2011-03-02T15:40:00Z,27.3220,-90.5360,78.7,9.0,31.0,99.0,'11111222,11111222,11144222' 
ADCP,ioos:station:wmo:42370:1,2011-03-02T16:00:00Z,27.3220,-90.5360,78.7,9.1,30.0,99.0,'11111222,11111222,11144222' 
ADCP,ioos:station:wmo:42370:1,2011-03-02T16:20:00Z,27.3220,-90.5360,78.7,8.8,32.0,99.0,'11111222,11111222,11144222' 
ADCP,ioos:station:wmo:42370:1,2011-03-02T16:40:00Z,27.3220,-90.5360,78.7,8.4,30.0,99.0,'11111222,11111222,11144222' 
ADCP,ioos:station:wmo:42370:1,2011-03-02T17:00:00Z,27.3220,-90.5360,78.7,8.9,26.0,99.0,'11111222,11111222,11144222' 
ADCP,ioos:station:wmo:42370:1,2011-03-02T17:20:00Z,27.3220,-90.5360,78.7,7.7,24.0,99.0,'11111222,11111222,11144222' 
ADCP,ioos:station:wmo:42370:1,2011-03-02T17:40:00Z,27.3220,-90.5360,78.7,7.2,24.0,99.0,'11111222,11111222,11144222' 
ADCP,ioos:station:wmo:42370:1,2011-03-02T18:00:00Z,27.3220,-90.5360,78.7,7.3,153.0,99.0,'11111222,11111222,11144222' 
ADCP,ioos:station:wmo:42370:1,2011-03-02T18:20:00Z,27.3220,-90.5360,78.7,7.5,307.0,99.0,'11111222,11111222,11144222' 
ADCP,ioos:station:wmo:42370:1,2011-03-02T18:40:00Z,27.3220,-90.5360,78.7,7.3,318.0,99.0,'11111222,11111222,11144222' 
ADCP,ioos:station:wmo:42370:1,2011-03-02T19:00:00Z,27.3220,-90.5360,78.7,7.6,27.0,99.0,'11111222,11111222,11144222' 
ADCP,ioos:station:wmo:42370:1,2011-03-02T19:20:00Z,27.3220,-90.5360,78.7,8.5,22.0,99.0,'11111222,11111222,11144222' 
ADCP,ioos:station:wmo:42370:1,2011-03-02T19:40:00Z,27.3220,-90.5360,78.7,8.9,124.0,99.0,'11111222,11111222,11144222' 
ADCP,ioos:station:wmo:42370:1,2011-03-02T20:00:00Z,27.3220,-90.5360,78.7,8.7,326.0,99.0,'11111222,11111222,11144222' 
ADCP,ioos:station:wmo:42370:1,2011-03-02T20:20:00Z,27.3220,-90.5360,78.7,8.4,199.0,99.0,'11111222,11111222,11144222' 
ADCP,ioos:station:wmo:42370:1,2011-03-02T20:40:00Z,27.3220,-90.5360,78.7,9.1,88.0,99.0,'11111222,11111222,11144222' 
ADCP,ioos:station:wmo:42370:1,2011-03-02T21:00:00Z,27.3220,-90.5360,78.7,9.9,148.0,99.0,'11111222,11111222,11144222' 
ADCP,ioos:station:wmo:42370:1,2011-03-02T21:20:00Z,27.3220,-90.5360,78.7,8.6,200.0,99.0,'11111222,11111222,11144222' 
ADCP,ioos:station:wmo:42370:1,2011-03-02T21:40:00Z,27.3220,-90.5360,78.7,10.9,129.0,99.0,'11111222,11111222,11144222' 
ADCP,ioos:station:wmo:42370:1,2011-03-02T22:00:00Z,27.3220,-90.5360,78.7,10.8,22.0,99.0,'11111222,11111222,11144222' 
ADCP,ioos:station:wmo:42370:1,2011-03-02T22:20:00Z,27.3220,-90.5360,78.7,10.4,22.0,99.0,'11111222,11111222,11144222' 
ADCP,ioos:station:wmo:42370:1,2011-03-02T23:00:00Z,27.3220,-90.5360,78.7,11.2,22.0,99.0,'11111222,11111222,11144222' 
ADCP,ioos:station:wmo:42370:1,2011-03-02T23:20:00Z,27.3220,-90.5360,78.7,11.1,26.0,99.0,'11111222,11111222,11144222' 
ADCP,ioos:station:wmo:42370:1,2011-03-02T23:40:00Z,27.3220,-90.5360,78.7,12.2,29.0,99.0,'11111222,11111222,11144222' 
ADCP,ioos:station:wmo:42370:1,2011-03-03T00:00:00Z,27.3220,-90.5360,78.7,14.1,31.0,99.0,'11111222,11111222,11144222' 
ADCP,ioos:station:wmo:42370:1,2011-03-03T00:20:00Z,27.3220,-90.5360,78.7,13.8,26.0,99.0,'11111222,11111222,11144222' 
ADCP,ioos:station:wmo:42370:1,2011-03-03T01:00:00Z,27.3220,-90.5360,78.7,11.5,24.0,99.0,'11111222,11111222,11144222' 
ADCP,ioos:station:wmo:42370:1,2011-03-03T01:20:00Z,27.3220,-90.5360,78.7,11.4,22.0,99.0,'11111222,11111222,11144222' 
ADCP,ioos:station:wmo:42370:1,2011-03-03T01:40:00Z,27.3220,-90.5360,78.7,11.1,22.0,99.0,'11111222,11111222,11144222' 
ADCP,ioos:station:wmo:42370:1,2011-03-03T02:20:00Z,27.3220,-90.5360,78.7,9.9,21.0,99.0,'11111222,11111222,11144222' 
ADCP,ioos:station:wmo:42370:1,2011-03-03T02:40:00Z,27.3220,-90.5360,78.7,10.9,24.0,99.0,'11111222,11111222,11144222' 
ADCP,ioos:station:wmo:42370:1,2011-03-03T03:00:00Z,27.3220,-90.5360,78.7,10.5,30.0,99.0,'11111222,11111222,11144222' 
ADCP,ioos:station:wmo:42370:1,2011-03-03T03:20:00Z,27.3220,-90.5360,78.7,10.1,32.0,99.0,'11111222,11111222,11144222' 
ADCP,ioos:station:wmo:42370:1,2011-03-03T04:00:00Z,27.3220,-90.5360,78.7,10.2,26.0,99.0,'11111222,11111222,11144222' 
ADCP,ioos:station:wmo:42370:1,2011-03-03T05:00:00Z,27.3220,-90.5360,78.7,10.4,26.0,99.0,'11111222,11111222,11144222' 
ADCP,ioos:station:wmo:42370:1,2011-03-03T05:20:00Z,27.3220,-90.5360,78.7,10.4,24.0,99.0,'11111222,11111222,11144222' 
ADCP,ioos:station:wmo:42370:1,2011-03-03T05:40:00Z,27.3220,-90.5360,78.7,11.0,25.0,99.0,'11111222,11111222,11144222' 
ADCP,ioos:station:wmo:42370:1,2011-03-03T06:00:00Z,27.3220,-90.5360,78.7,10.9,26.0,99.0,'11111222,11111222,11144222' 
ADCP,ioos:station:wmo:42370:1,2011-03-03T06:20:00Z,27.3220,-90.5360,78.7,10.7,26.0,99.0,'11111222,11111222,11144222' 
ADCP,ioos:station:wmo:42370:1,2011-03-03T06:40:00Z,27.3220,-90.5360,78.7,10.7,31.0,99.0,'11111222,11111222,11144222' 
ADCP,ioos:station:wmo:42370:1,2011-03-03T07:00:00Z,27.3220,-90.5360,78.7,10.9,31.0,99.0,'11111222,11111222,11144222' 
ADCP,ioos:station:wmo:42370:1,2011-03-03T07:20:00Z,27.3220,-90.5360,78.7,10.6,33.0,99.0,'11111222,11111222,11144222' 
ADCP,ioos:station:wmo:42370:1,2011-03-03T07:40:00Z,27.3220,-90.5360,78.7,10.7,33.0,99.0,'11111222,11111222,11144222' 
ADCP,ioos:station:wmo:42370:1,2011-03-03T08:00:00Z,27.3220,-90.5360,78.7,11.0,33.0,99.0,'11111222,11111222,11144222' 
ADCP,ioos:station:wmo:42370:1,2011-03-03T08:20:00Z,27.3220,-90.5360,78.7,10.9,33.0,99.0,'11111222,11111222,11144222' 
ADCP,ioos:station:wmo:42370:1,2011-03-03T08:40:00Z,27.3220,-90.5360,78.7,11.4,31.0,99.0,'11111222,11111222,11144222' 
ADCP,ioos:station:wmo:42370:1,2011-03-03T09:00:00Z,27.3220,-90.5360,78.7,11.4,31.0,99.0,'11111222,11111222,11144222' 
ADCP,ioos:station:wmo:42370:1,2011-03-03T09:20:00Z,27.3220,-90.5360,78.7,10.9,33.0,99.0,'11111222,11111222,11144222' 
ADCP,ioos:station:wmo:42370:1,2011-03-03T09:40:00Z,27.3220,-90.5360,78.7,10.7,29.0,99.0,'11111222,11111222,11144222' 
ADCP,ioos:station:wmo:42370:1,2011-03-03T10:00:00Z,27.3220,-90.5360,78.7,10.7,26.0,99.0,'11111222,11111222,11144222' 
ADCP,ioos:station:wmo:42370:1,2011-03-03T10:20:00Z,27.3220,-90.5360,78.7,10.7,27.0,99.0,'11111222,11111222,11144222' 
ADCP,ioos:station:wmo:42370:1,2011-03-03T10:40:00Z,27.3220,-90.5360,78.7,10.9,26.0,99.0,'11111222,11111222,11144222' 
ADCP,ioos:station:wmo:42370:1,2011-03-03T11:00:00Z,27.3220,-90.5360,78.7,11.1,28.0,99.0,'11111222,11111222,11144222' 
ADCP,ioos:station:wmo:42370:1,2011-03-03T11:20:00Z,27.3220,-90.5360,78.7,11.3,26.0,99.0,'11111222,11111222,11144222' 
ADCP,ioos:station:wmo:42370:1,2011-03-03T11:40:00Z,27.3220,-90.5360,78.7,10.8,25.0,99.0,'11111222,11111222,11144222' 
ADCP,ioos:station:wmo:42370:1,2011-03-03T12:00:00Z,27.3220,-90.5360,78.7,11.2,26.0,99.0,'11111222,11111222,11144222' 
ADCP,ioos:station:wmo:42370:1,2011-03-03T12:20:00Z,27.3220,-90.5360,78.7,10.8,28.0,99.0,'11111222,11111222,11144222' 
ADCP,ioos:station:wmo:42370:1,2011-03-03T12:40:00Z,27.3220,-90.5360,78.7,11.2,30.0,99.0,'11111222,11111222,11144222' 
ADCP,ioos:station:wmo:42370:1,2011-03-03T13:00:00Z,27.3220,-90.5360,78.7,10.8,73.0,99.0,'11111222,11111222,11144222' 
ADCP,ioos:station:wmo:42370:1,2011-03-03T13:20:00Z,27.3220,-90.5360,78.7,11.2,42.0,99.0,'11111222,11111222,11144222' 
ADCP,ioos:station:wmo:42370:1,2011-03-03T13:40:00Z,27.3220,-90.5360,78.7,11.3,28.0,99.0,'11111222,11111222,11144222' 
ADCP,ioos:station:wmo:42370:1,2011-03-03T14:00:00Z,27.3220,-90.5360,78.7,11.3,30.0,99.0,'11111222,11111222,11144222' 
ADCP,ioos:station:wmo:42370:1,2011-03-03T14:20:00Z,27.3220,-90.5360,78.7,11.3,30.0,99.0,'11111222,11111222,11144222' 
ADCP,ioos:station:wmo:42370:1,2011-03-03T14:40:00Z,27.3220,-90.5360,78.7,11.2,28.0,99.0,'11111222,11111222,11144222' 
ADCP,ioos:station:wmo:42370:1,2011-03-03T15:00:00Z,27.3220,-90.5360,78.7,11.2,26.0,99.0,'11111222,11111222,11144222' 
ADCP,ioos:station:wmo:42370:1,2011-03-03T15:20:00Z,27.3220,-90.5360,78.7,11.0,25.0,99.0,'11111222,11111222,11144222' 
ADCP,ioos:station:wmo:42370:1,2011-03-03T15:40:00Z,27.3220,-90.5360,78.7,10.4,26.0,99.0,'11111222,11111222,11144222' 
ADCP,ioos:station:wmo:42370:1,2011-03-03T16:00:00Z,27.3220,-90.5360,78.7,10.9,24.0,99.0,'11111222,11111222,11144222' 
ADCP,ioos:station:wmo:42370:1,2011-03-03T16:20:00Z,27.3220,-90.5360,78.7,10.0,22.0,99.0,'11111222,11111222,11144222' 
ADCP,ioos:station:wmo:42370:1,2011-03-03T16:40:00Z,27.3220,-90.5360,78.7,10.2,22.0,99.0,'11111222,11111222,11144222' 
ADCP,ioos:station:wmo:42370:1,2011-03-03T17:00:00Z,27.3220,-90.5360,78.7,10.3,21.0,99.0,'11111222,11111222,11144222' 
ADCP,ioos:station:wmo:42370:1,2011-03-03T17:20:00Z,27.3220,-90.5360,78.7,10.4,26.0,99.0,'11111222,11111222,11144222' 
ADCP,ioos:station:wmo:42370:1,2011-03-03T17:40:00Z,27.3220,-90.5360,78.7,9.7,35.0,99.0,'11111222,11111222,11144222' 
ADCP,ioos:station:wmo:42370:1,2011-03-03T18:00:00Z,27.3220,-90.5360,78.7,6.9,47.0,99.0,'11111222,11111222,11144222' 
ADCP,ioos:station:wmo:42370:1,2011-03-03T18:20:00Z,27.3220,-90.5360,78.7,8.3,43.0,99.0,'11111222,11111222,11144222' 
ADCP,ioos:station:wmo:42370:1,2011-03-03T18:40:00Z,27.3220,-90.5360,78.7,6.7,83.0,99.0,'11111222,11111222,11144222' 
ADCP,ioos:station:wmo:42370:1,2011-03-03T19:00:00Z,27.3220,-90.5360,78.7,7.4,106.0,99.0,'11111222,11111222,11144222' 
ADCP,ioos:station:wmo:42370:1,2011-03-03T19:20:00Z,27.3220,-90.5360,78.7,7.5,61.0,99.0,'11111222,11111222,11144222' 
ADCP,ioos:station:wmo:42370:1,2011-03-03T19:40:00Z,27.3220,-90.5360,78.7,6.0,70.0,99.0,'11111222,11111222,11144222' 
ADCP,ioos:station:wmo:42370:1,2011-03-03T20:00:00Z,27.3220,-90.5360,78.7,7.0,66.0,99.0,'11111222,11111222,11144222' 
ADCP,ioos:station:wmo:42370:1,2011-03-03T20:20:00Z,27.3220,-90.5360,78.7,7.4,60.0,99.0,'11111222,11111222,11144222' 
ADCP,ioos:station:wmo:42370:1,2011-03-03T20:40:00Z,27.3220,-90.5360,78.7,5.5,56.0,99.0,'11111222,11111222,11144222' 
ADCP,ioos:station:wmo:42370:1,2011-03-03T21:00:00Z,27.3220,-90.5360,78.7,6.2,59.0,99.0,'11111222,11111222,11144222' 
ADCP,ioos:station:wmo:42370:1,2011-03-03T21:20:00Z,27.3220,-90.5360,78.7,7.6,59.0,99.0,'11111222,11111222,11144222' 
ADCP,ioos:station:wmo:42370:1,2011-03-03T21:40:00Z,27.3220,-90.5360,78.7,7.8,42.0,99.0,'11111222,11111222,11144222' 
ADCP,ioos:station:wmo:42370:1,2011-03-03T22:00:00Z,27.3220,-90.5360,78.7,4.4,58.0,99.0,'11111222,11111222,11144222' 
ADCP,ioos:station:wmo:42370:1,2011-03-03T22:20:00Z,27.3220,-90.5360,78.7,4.2,65.0,99.0,'11111222,11111222,11144222' 
ADCP,ioos:station:wmo:42370:1,2011-03-03T23:00:00Z,27.3220,-90.5360,78.7,5.5,55.0,99.0,'11111222,11111222,11144222' 
ADCP,ioos:station:wmo:42370:1,2011-03-03T23:20:00Z,27.3220,-90.5360,78.7,7.1,61.0,99.0,'11111222,11111222,11144222' 
ADCP,ioos:station:wmo:42370:1,2011-03-03T23:40:00Z,27.3220,-90.5360,78.7,5.4,68.0,99.0,'11111222,11111222,11144222' 